Regional Weather Roundup
Issued by NWS

Home | Current Version | Previous Version | Graphics & Text | Print | Product List | Glossary Off
Versions: 1 2 3 4 5 6 7 8 9 10 11 12 13 14 15 16 17 18 19 20 21 22 23 24 25 26 27 28 29 30 31 32 33 34 35 36 37 38 39 40 41 42 43 44 45 46 47 48 49 50

000
ASUS43 KMKX 292011
RWRWI

WISCONSIN REGIONAL WEATHER ROUNDUP
NATIONAL WEATHER SERVICE MILWAUKEE/SULLIVAN WI
300 PM CDT MON MAY 29 2017

NOTE: "FAIR" INDICATES FEW OR NO CLOUDS BELOW 12,000 FEET WITH NO
SIGNIFICANT WEATHER AND/OR OBSTRUCTIONS TO VISIBILITY.

WIZ001-002-006>008-014>016-023>028-292100-
NORTHWEST WISCONSIN

CITY           SKY/WX    TMP DP  RH WIND       PRES   REMARKS
SUPERIOR ARPT  NOT AVBL
ASHLAND        CLOUDY    62  52  69 W18       29.70R
HAYWARD        CLOUDY    62  46  55 VRB7      29.73R
SIREN          PTSUNNY   59  51  75 W12       29.76S
CUMBERLAND     LGT RAIN  55  50  82 W13G23    29.78R
RICE LAKE      CLOUDY    60  51  72 W13       29.78S
CHETEK         PTSUNNY   59  53  79 W7        29.77S
LADYSMITH      CLOUDY    60  51  73 W12       29.76F
EAU CLAIRE     PTSUNNY   62  52  69 W18G24    29.77S
MENOMONIE      CLOUDY    64  48  56 W16       29.79S
NEW RICHMOND   MOSUNNY   64  47  55 W17G25    29.79F
OSCEOLA        PTSUNNY   64  50  59 W15G22    29.82R
$$

WIZ003>005-009-010-017-018-292100-
NORTH CENTRAL WISCONSIN

CITY           SKY/WX    TMP DP  RH WIND       PRES   REMARKS
MANITOWISH WTR PTSUNNY   58  55  87 W12G20    29.69F
ARBOR VITAE    MOSUNNY   57  52  85 W8        29.70S
WOODRUFF       MOSUNNY   57  52  85 W8        29.70S
RHINELANDER    PTSUNNY   61  50  67 W20G28    29.71R
EAGLE RIVER    LGT RAIN  56  47  71 W14G20    29.69R
LAND O LAKES   LGT RAIN  54  51  89 W8        29.70R
PHILLIPS       PTSUNNY   60  51  69 W12G21    29.71S
TOMAHAWK       MOSUNNY   59  49  69 W12G21    29.73R
MEDFORD        RAIN      58  47  67 W13G22    29.75S
MERRILL        PTSUNNY   61  49  64 W15G23    29.74R
$$

WIZ029-030-035-036-043>047-292100-
CENTRAL WISCONSIN

CITY           SKY/WX    TMP DP  RH WIND       PRES   REMARKS
WAUSAU         PTSUNNY   62  47  57 W21G26    29.73S
MOSINEE        PTSUNNY   63  48  59 W20G28    29.76S
MARSHFIELD     LGT RAIN  57  47  69 W16G25    29.76R
STEVENS POINT  PTSUNNY   60  48  64 W9G17     29.76F
WAUPACA        PTSUNNY   67  47  48 SW20G26   29.77R
WAUTOMA        PTSUNNY   64  49  57 W13       29.79
WISC RAPIDS    PTSUNNY   64  48  56 W12G18    29.78F
CAMP DOUGLAS   MOSUNNY   65  47  52 W20       29.79F
$$

WIZ011>013-019>022-031-037>040-048>050-292100-
NORTHEAST WISCONSIN

CITY           SKY/WX    TMP DP  RH WIND       PRES   REMARKS
ANTIGO         CLOUDY    57  52  81 W13G24    29.74S
SHAWANO        PTSUNNY   65  52  62 W15G24    29.74S
OCONTO         MOSUNNY   62  47  58 W16G24    29.72R
STURGEON BAY   MOSUNNY   65  51  60 SW20G26   29.71R
GREEN BAY      PTSUNNY   67  51  56 W16G23    29.74R
MANITOWOC      MOSUNNY   66  47  50 W14G22    29.76R
APPLETON       PTSUNNY   64  45  48 W17G23    29.75R
CLINTONVILLE   LGT RAIN  55  48  76 W8        29.76R
OSHKOSH        PTSUNNY   66  46  48 W16G24    29.77R
$$

WIZ032>034-041-042-053>061-292100-
SOUTHWEST WISCONSIN

CITY           SKY/WX    TMP DP  RH WIND       PRES   REMARKS
LA CROSSE      LGT RAIN  61  51  70 NW14      29.82R
SPARTA         CLOUDY    57  51  79 SW7       29.83R
VIROQUA        CLOUDY    64  45  51 MISG      29.83F
BOSCOBEL       PTSUNNY   69  44  40 W14G24    29.84S
PRAIRIE DU CHI PTSUNNY   67  45  45 NW18G30   29.85R
PLATTEVILLE    MOSUNNY   69  46  43 W20G28    29.86F
$$

WIZ056-057-062-063-064-067-068-292100-
SOUTH CENTRAL WISCONSIN

CITY           SKY/WX    TMP DP  RH WIND       PRES   REMARKS
REEDSBURG      PTSUNNY   65  46  49 W17G28    29.82F
BARABOO/DELLS  PTSUNNY   64  45  48 W20G25    29.82S
LONE ROCK      MOSUNNY   69  45  41 W17G26    29.83S
MINERAL POINT  PTSUNNY   68  43  40 W21G29    29.84F
MADISON        PTSUNNY   67  46  47 W12G22    29.82R
MIDDLETON      PTSUNNY   68  46  45 W21G26    29.83S
WATERTOWN      CLOUDY    66  47  48 W18G24    29.81S
MONROE         MOSUNNY   68  43  40 W21G30    29.85S
JANESVILLE     MOSUNNY   72  45  37 W17G25    29.83R
$$

WIZ051-052-058>065-066-070>072-292100-
SOUTHEAST WISCONSIN

CITY           SKY/WX    TMP DP  RH WIND       PRES   REMARKS
MILWAUKEE      PTSUNNY   73  46  38 W17G26    29.80R
WAUKESHA       PTSUNNY   64  46  52 W16G29    29.82R
MILWAUKEE/TIMM PTSUNNY   66  43  42 W14G29    29.81R
RACINE         MOSUNNY   72  44  36 W16G24    29.82R
KENOSHA        MOSUNNY   72  46  39 W23G32    29.82R
FOND DU LAC    PTSUNNY   67  43  41 W20G28    29.77S
SHEBOYGAN      PTSUNNY   67  49  52 W17G28    29.77S
WEST BEND      CLOUDY    66  45  45 W16G23    29.79F
JUNEAU         CLOUDY    65  45  48 W22       29.81S
$$

LSZ147-162-292100-
LAKE SUPERIOR

STATION/POSITION TIME  TEMP    WIND        PRES    WAVE
                       AIR SEA DIR/SP/G            HT/PER
                 (UTC) (F)     (DEG/KT/KT) (MB)    (FT/S)
W MID LAKE BUOY  1850   44 37  250/ 17/ 21 1003.1R   3/ 4
DEVILS ISLAND    2000   47     250/ 16/ 20 1005.0R
PORT WING        1940   54     250/ 14/ 20 1006.4R
SAXON HARBOR     1930   59     270/  5/  8 1005.4R
$$

LMZ867-665-643>646-292100-
LAKE MICHIGAN

STATION/POSITION TIME  TEMP    WIND        PRES    WAVE
                       AIR SEA DIR/SP/G            HT/PER
                 (UTC) (F)     (DEG/KT/KT) (MB)    (FT/S)
CHAMBERS ISLAND  1940   65     200/ 11/ 16 1004.4R
N MID LAKE BUOY  1950   47 41  220/ 12/ 14 1006.5R   2/ 4
NORTHPORT PIER   1940   66     250/  8/ 19 1004.7R
KEWAUNEE LAKESHO 1942   65     260/  9/ 19 1006.5R
SHEBOYGAN LAKESH 2000   66     260/ 21/ 24 1007.7R
PORT WASHINGTON  1940   69     280/ 10/ 20 1009.8R
ATWATER BUOY     1909   63     260/ 14/ 21 1009.0R
MILWAUKEE LAKESH 1950   68     290/ 13/ 17   N/A
S MID LAKE BUOY  1850   52 48  230/  8/  8 1009.7R   1
KENOSHA   LAKESH 2000   71     280/ 21/ 28 1009.1
$$

TC  - TEMPERATURE IN CELSIUS
VSB - VISIBILITY IN STATUTE MILES
WCI - WIND CHILL INDEX
HX  - HEAT INDEX




USA.gov is the U.S. government's official web portal to all federal, state and local government web resources and services.